Overview Statistics Trail Chart Weather Telemetry Raw packets
 

This is the latest recevied weather packets stored in our database for station/object 4S6DRJ-13. If no packets are shown the sender has not sent any weather packets the latest 10 day(s).

<< 125 126 127 128 129 130 131 >>
Time Temp. Humidity Pressure Rain* Wind** Luminosity Snow
1788270771 28.33° C 81% 1010.1 hPa 0 mm 1.79 m/s, 181° 0 W/m² -
1788270710 28.33° C 81% 1010 hPa 0 mm 0.89 m/s, 86° 0 W/m² -
1788270649 28.89° C 81% 1010 hPa 0 mm 0.45 m/s, 156° 0 W/m² -
1788270588 28.89° C 81% 1010.1 hPa 0 mm 0.89 m/s, 325° 0 W/m² -
1788270527 28.89° C 81% 1010 hPa 0 mm 0.89 m/s, 204° 0 W/m² -
1788270466 28.89° C 81% 1010.1 hPa 0 mm 0 m/s 0 W/m² -
1788270405 28.89° C 81% 1010 hPa 0 mm 0.89 m/s, 219° 0 W/m² -
1788270344 28.89° C 81% 1010.1 hPa 0 mm 0 m/s 0 W/m² -
1788270283 28.89° C 80% 1010 hPa 0 mm 0 m/s 0 W/m² -
1788270222 28.89° C 80% 1010.1 hPa 0 mm 1.34 m/s, 270° 0 W/m² -
1788270161 28.89° C 80% 1009.8 hPa 0 mm 1.79 m/s, 210° 0 W/m² -
1788270100 28.89° C 80% 1009.8 hPa 0 mm 0.89 m/s, 215° 0 W/m² -
1788270040 28.89° C 80% 1010 hPa 0 mm 0.89 m/s, 224° 0 W/m² -
1788269978 28.89° C 80% 1009.7 hPa 0 mm 0.89 m/s, 215° 0 W/m² -
1788269917 28.89° C 80% 1009.8 hPa 0 mm 0.89 m/s, 299° 0 W/m² -
1788269856 28.89° C 80% 1009.8 hPa 0 mm 0.45 m/s, 161° 0 W/m² -
1788269795 28.89° C 80% 1010.1 hPa 0 mm 0.89 m/s, 48° 0 W/m² -
1788269734 28.89° C 80% 1009.8 hPa 0 mm 0.89 m/s, 249° 0 W/m² -
1788269673 28.89° C 80% 1009.7 hPa 0 mm 0.45 m/s, 260° 0 W/m² -
1788269612 28.89° C 80% 1009.7 hPa 0 mm 0.89 m/s, 223° 0 W/m² -
1788269551 28.89° C 80% 1009.7 hPa 0 mm 0.89 m/s, 230° 0 W/m² -
1788269490 28.89° C 80% 1009.7 hPa 0 mm 1.34 m/s, 251° 0 W/m² -
1788269429 28.89° C 80% 1009.8 hPa 0 mm 1.79 m/s, 289° 0 W/m² -
1788269368 28.89° C 80% 1009.7 hPa 0 mm 0.89 m/s, 270° 0 W/m² -
1788269307 28.89° C 80% 1009.5 hPa 0 mm 0.45 m/s, 266° 0 W/m² -

* Rain latest hour (hover to see other rain measurements)
** Current wind speed in m/s (hover to see current wind gust speed)